Location: Rounton
(54.4000°N, 1.3500°W)
Time: 04:31:38
(UTC+00:00)

A-11 Canister half - Pass Details

Date: 05 December 2021
Orbit: 1524 x 1684 km, 47.3° (Epoch: 17 January)

Event Time Altitude Azimuth Distance (km) Brightness Sun altitude
Exits shadow 06:58:11 - 276° (W) 4,070 10.6 -9.5°
Reaches altitude 10° 06:58:44 10° 275° (W) 3,919 10.5 -9.5°
Maximum altitude 07:07:29 36° 213° (SSW) 2,371 10.0 -8.3°
Drops below altitude 10° 07:16:00 10° 152° (SSE) 3,803 12.1 -7.2°
Sets 07:19:21 0° 144° (SE) 4,763 13.0 -6.8°
